User: anonymous   Login
Location: Stigler
(35.2540°N, 95.1230°W)
Time: 05:15:44
(UTC-05:00)
Language:

Cosmos 1805 - Orbit

View from above orbital plane
View from above orbital plane
View from above satellite
View from above satellite

Ground track
Ground track

The orbit data is extracted from the following two-line orbital elements,

1 17191U 86097A   16270.50557634  .00000476  00000-0  26428-4 0  9993
2 17191  82.4727 289.0929 0003512 259.8660 100.2174 15.11374338623818
Epoch (UTC): 26 September 2016 12:08:01
Eccentricity: 0.0003512
inclination: 82.4727°
perigee height: 529 km
apogee height: 534 km
right ascension of ascending node: 289.0929°
argument of perigee: 259.8660°
revolutions per day: 15.11374338
mean anomaly at epoch: 100.2174°
orbit number at epoch: 62381

The dashed part of the orbit path shows where the satellite is in the earth's shadow,  

DLR